TimeCDT,TemperatureF,Dew PointF,Humidity,Sea Level PressureIn,VisibilityMPH,Wind Direction,Wind SpeedMPH,Gust SpeedMPH,PrecipitationIn,Events,Conditions,WindDirDegrees,DateUTC
12:13 AM,51.8,48.2,88,29.95,10.0,West,5.8,-,N/A,,Clear,280,2013-09-20 05:13:00
12:33 AM,50.0,46.4,87,29.95,10.0,West,5.8,-,N/A,,Clear,280,2013-09-20 05:33:00
12:53 AM,50.0,46.4,87,29.95,10.0,West,5.8,-,N/A,,Clear,280,2013-09-20 05:53:00
1:13 AM,50.0,46.4,87,29.95,10.0,West,4.6,-,N/A,,Clear,280,2013-09-20 06:13:00
1:33 AM,48.2,46.4,93,29.96,10.0,West,6.9,-,N/A,,Clear,280,2013-09-20 06:33:00
1:53 AM,48.2,46.4,93,29.96,10.0,WNW,8.1,-,N/A,,Clear,290,2013-09-20 06:53:00
2:13 AM,48.2,46.4,93,29.96,10.0,WNW,8.1,-,N/A,,Clear,290,2013-09-20 07:13:00
2:33 AM,48.2,46.4,93,29.95,10.0,WNW,9.2,-,N/A,,Clear,300,2013-09-20 07:33:00
2:53 AM,48.2,46.4,93,29.96,10.0,WNW,6.9,-,N/A,,Clear,290,2013-09-20 07:53:00
3:13 AM,48.2,46.4,93,29.95,10.0,WNW,8.1,-,N/A,,Clear,300,2013-09-20 08:13:00
3:33 AM,48.2,46.4,93,29.95,10.0,WNW,8.1,-,N/A,,Clear,300,2013-09-20 08:33:00
3:53 AM,48.2,46.4,93,29.95,10.0,WNW,6.9,-,N/A,,Scattered Clouds,290,2013-09-20 08:53:00
4:13 AM,48.2,46.4,93,29.95,10.0,WNW,8.1,-,N/A,,Mostly Cloudy,290,2013-09-20 09:13:00
4:33 AM,50.0,46.4,87,29.95,10.0,WNW,8.1,-,N/A,,Overcast,290,2013-09-20 09:33:00
4:53 AM,48.2,46.4,93,29.95,10.0,WNW,3.5,-,N/A,,Overcast,300,2013-09-20 09:53:00
5:13 AM,50.0,46.4,87,29.95,10.0,West,6.9,-,N/A,,Overcast,280,2013-09-20 10:13:00
5:33 AM,50.0,46.4,87,29.95,10.0,WNW,6.9,-,N/A,,Overcast,290,2013-09-20 10:33:00
5:53 AM,51.8,48.2,88,29.95,10.0,NW,12.7,19.6,N/A,,Overcast,310,2013-09-20 10:53:00
6:13 AM,51.8,48.2,88,29.96,10.0,NW,10.4,20.7,N/A,,Overcast,310,2013-09-20 11:13:00
6:33 AM,51.8,48.2,88,29.96,10.0,NW,9.2,-,N/A,,Overcast,320,2013-09-20 11:33:00
6:53 AM,51.8,48.2,88,29.96,10.0,NW,12.7,17.3,N/A,,Overcast,310,2013-09-20 11:53:00
7:13 AM,51.8,48.2,88,29.97,10.0,NW,13.8,-,N/A,,Overcast,310,2013-09-20 12:13:00
7:33 AM,51.8,48.2,88,29.98,10.0,WNW,10.4,16.1,N/A,,Overcast,300,2013-09-20 12:33:00
7:54 AM,51.8,48.2,88,29.98,10.0,NW,13.8,17.3,N/A,,Overcast,310,2013-09-20 12:54:00
8:13 AM,51.8,48.2,88,29.98,10.0,NW,11.5,17.3,N/A,,Overcast,310,2013-09-20 13:13:00
8:33 AM,51.8,48.2,88,29.99,10.0,NW,9.2,-,N/A,,Overcast,310,2013-09-20 13:33:00
8:54 AM,51.8,48.2,88,29.99,10.0,NW,10.4,17.3,N/A,,Overcast,320,2013-09-20 13:54:00
9:13 AM,51.8,48.2,88,29.99,10.0,NW,11.5,19.6,N/A,,Overcast,310,2013-09-20 14:13:00
9:33 AM,51.8,48.2,88,30.00,10.0,NW,12.7,18.4,N/A,,Overcast,310,2013-09-20 14:33:00
9:53 AM,51.8,48.2,88,30.00,10.0,WNW,11.5,17.3,N/A,,Overcast,300,2013-09-20 14:53:00
10:13 AM,51.8,46.4,82,30.01,10.0,NW,9.2,17.3,N/A,,Overcast,320,2013-09-20 15:13:00
10:33 AM,51.8,46.4,82,30.01,10.0,NW,13.8,19.6,N/A,,Overcast,320,2013-09-20 15:33:00
10:53 AM,53.6,46.4,77,30.01,10.0,NW,11.5,17.3,N/A,,Overcast,320,2013-09-20 15:53:00
11:13 AM,55.4,46.4,72,30.01,10.0,NW,16.1,-,N/A,,Overcast,320,2013-09-20 16:13:00
11:33 AM,55.4,46.4,72,30.01,10.0,NW,11.5,19.6,N/A,,Overcast,310,2013-09-20 16:33:00
11:53 AM,55.4,44.6,67,30.01,10.0,NW,8.1,18.4,N/A,,Overcast,310,2013-09-20 16:53:00
12:13 PM,55.4,44.6,67,30.01,10.0,WNW,16.1,23.0,N/A,,Overcast,300,2013-09-20 17:13:00
12:33 PM,55.4,42.8,63,30.01,10.0,NW,16.1,19.6,N/A,,Overcast,320,2013-09-20 17:33:00
12:53 PM,55.4,42.8,63,30.01,10.0,NW,12.7,20.7,N/A,,Overcast,320,2013-09-20 17:53:00
1:13 PM,53.6,42.8,67,30.01,10.0,NW,16.1,24.2,N/A,,Overcast,310,2013-09-20 18:13:00
1:33 PM,53.6,42.8,67,30.01,10.0,NW,15.0,21.9,N/A,,Overcast,320,2013-09-20 18:33:00
1:53 PM,55.4,42.8,63,30.00,10.0,NW,11.5,-,N/A,,Overcast,320,2013-09-20 18:53:00
2:13 PM,55.4,42.8,63,29.99,10.0,NW,16.1,21.9,N/A,,Overcast,310,2013-09-20 19:13:00
2:33 PM,55.4,42.8,63,29.99,10.0,NNW,12.7,24.2,N/A,,Overcast,330,2013-09-20 19:33:00
2:53 PM,55.4,41.0,58,29.99,10.0,NNW,15.0,23.0,N/A,,Overcast,340,2013-09-20 19:53:00
3:13 PM,55.4,39.2,54,29.99,10.0,NW,17.3,25.3,N/A,,Mostly Cloudy,310,2013-09-20 20:13:00
3:33 PM,57.2,41.0,55,29.98,10.0,NNW,15.0,25.3,N/A,,Scattered Clouds,340,2013-09-20 20:33:00
3:53 PM,57.2,39.2,51,29.98,10.0,NNW,17.3,27.6,N/A,,Scattered Clouds,340,2013-09-20 20:53:00
4:13 PM,59.0,39.2,48,29.98,10.0,NNW,16.1,24.2,N/A,,Clear,340,2013-09-20 21:13:00
4:33 PM,59.0,39.2,48,29.97,10.0,NNW,11.5,24.2,N/A,,Clear,330,2013-09-20 21:33:00
4:53 PM,60.8,39.2,45,29.97,10.0,NNW,17.3,20.7,N/A,,Clear,330,2013-09-20 21:53:00
5:13 PM,60.8,39.2,45,29.97,10.0,NNW,16.1,24.2,N/A,,Scattered Clouds,340,2013-09-20 22:13:00
5:33 PM,60.8,39.2,45,29.97,10.0,North,15.0,21.9,N/A,,Scattered Clouds,350,2013-09-20 22:33:00
5:53 PM,60.8,39.2,45,29.97,10.0,NW,13.8,-,N/A,,Clear,320,2013-09-20 22:53:00
6:13 PM,60.8,39.2,45,29.97,10.0,NNW,10.4,19.6,N/A,,Clear,330,2013-09-20 23:13:00
6:33 PM,60.8,39.2,45,29.97,10.0,NNW,10.4,18.4,N/A,,Clear,330,2013-09-20 23:33:00
6:53 PM,60.8,39.2,45,29.97,10.0,NNW,8.1,-,N/A,,Clear,330,2013-09-20 23:53:00
7:13 PM,59.0,39.2,48,29.97,10.0,NNW,6.9,-,N/A,,Clear,330,2013-09-21 00:13:00
7:33 PM,57.2,41.0,55,29.97,10.0,NW,4.6,-,N/A,,Clear,320,2013-09-21 00:33:00
7:53 PM,55.4,41.0,58,29.98,10.0,NW,4.6,-,N/A,,Clear,310,2013-09-21 00:53:00
8:13 PM,53.6,41.0,62,29.98,10.0,NW,3.5,-,N/A,,Clear,310,2013-09-21 01:13:00
8:33 PM,53.6,41.0,62,29.98,10.0,NW,4.6,-,N/A,,Clear,320,2013-09-21 01:33:00
8:53 PM,51.8,41.0,67,29.98,10.0,WNW,4.6,-,N/A,,Clear,300,2013-09-21 01:53:00
9:13 PM,51.8,41.0,67,29.98,10.0,Calm,Calm,-,N/A,,Clear,0,2013-09-21 02:13:00
9:33 PM,48.2,41.0,76,29.99,10.0,Calm,Calm,-,N/A,,Clear,0,2013-09-21 02:33:00
9:53 PM,50.0,41.0,71,30.00,10.0,Calm,Calm,-,N/A,,Clear,0,2013-09-21 02:53:00
10:13 PM,48.2,41.0,76,30.00,10.0,Calm,Calm,-,N/A,,Clear,0,2013-09-21 03:13:00
10:33 PM,48.2,41.0,76,29.99,10.0,Calm,Calm,-,N/A,,Clear,0,2013-09-21 03:33:00
10:53 PM,46.4,41.0,81,30.00,10.0,Calm,Calm,-,N/A,,Clear,0,2013-09-21 03:53:00
11:13 PM,46.4,39.2,76,30.00,10.0,Calm,Calm,-,N/A,,Clear,0,2013-09-21 04:13:00
11:33 PM,44.6,42.8,93,29.99,10.0,Calm,Calm,-,N/A,,Clear,0,2013-09-21 04:33:00
11:53 PM,44.6,41.0,87,29.99,10.0,Calm,Calm,-,N/A,,Clear,0,2013-09-21 04:53:00